EW7619 Weather Reports


Display with metric or nautical units.
time (UTC)temp
F
wind
direction
speed
MPH
gust
MPH
rain 1hr
in
rain 24hr
in
rain mn
in
humidity
%
barometer
mb
20260506062015 64 0.0 0.0 0.00 0.00 0.00 50 1008.5
20260506061015 64 0.0 0.0 0.00 0.00 0.00 49 1008.5
20260506051037 67 0.0 0.0 0.00 0.00 0.00 44 1008.2
20260506045052 67 0.0 0.0 0.00 0.00 0.00 43 1008.0
20260506044026 67 0.0 0.0 0.00 0.00 0.00 42 1008.0
20260506043131 68 0.0 0.0 0.00 0.00 0.00 41 1008.0
20260506042025 68 0.0 0.0 0.00 0.00 0.00 40 1007.8
20260506041018 69 0.0 0.0 0.00 0.00 0.00 40 1007.6
20260506040050 69 0.0 0.0 0.00 0.00 0.00 39 1007.4
20260506035015 69 0.0 0.0 0.00 0.00 0.00 38 1007.3
20260506034045 69 0.0 0.0 0.00 0.00 0.00 38 1007.3
20260506033032 69 0.0 0.0 0.00 0.00 0.00 37 1007.1
20260506032048 70 0.0 0.0 0.00 0.00 0.00 36 1007.0
20260506031020 70 0.0 0.0 0.00 0.00 0.00 36 1006.8
20260506030111 70 0.0 0.0 0.00 0.00 0.00 35 1006.9
20260506025015 71 0.0 0.0 0.00 0.00 0.00 34 1006.8
20260506024015 71 0.0 0.0 0.00 0.00 0.00 33 1006.5
20260506023016 71 0.0 0.0 0.00 0.00 0.00 32 1006.4
20260506022016 72 0.0 0.0 0.00 0.00 0.00 31 1006.2
20260506021015 73 0.0 0.0 0.00 0.00 0.00 30 1006.0
20260506020015 74 0.0 0.0 0.00 0.00 0.00 30 1005.9
20260506015040 75 0.0 0.0 0.00 0.00 0.00 28 1005.8
20260506014021 76 0.0 0.0 0.00 0.00 0.00 27 1005.8
20260506013036 76 0.0 0.0 0.00 0.00 0.00 27 1005.8
20260506012018 78 0.0 0.0 0.00 0.00 0.00 25 1005.8
20260506011023 78 0.0 0.0 0.00 0.00 0.00 26 1005.7
20260506010032 78 0.0 0.0 0.00 0.00 0.00 25 1005.6
20260506005050 77 0.0 0.0 0.00 0.00 0.00 28 1005.4
20260506004049 76 0.0 0.0 0.00 0.00 0.00 29 1005.4
20260506003100 76 0.0 0.0 0.00 0.00 0.00 29 1005.4
20260506002041 76 0.0 0.0 0.00 0.00 0.00 28 1005.3
20260506001027 77 0.0 0.0 0.00 0.00 0.00 26 1005.4
20260506000055 78 0.0 0.0 0.00 0.00 0.00 24 1005.2
20260505235150 78 0.0 0.0 0.00 0.00 0.00 24 1005.2
20260505234052 78 0.0 0.0 0.00 0.00 0.00 23 1005.1
20260505233032 77 0.0 0.0 0.00 0.00 0.00 24 1005.1
20260505232038 77 0.0 0.0 0.00 0.00 0.00 25 1005.1
20260505231025 76 0.0 0.0 0.00 0.00 0.00 25 1004.9
20260505230018 76 0.0 0.0 0.00 0.00 0.00 25 1005.0
20260505225033 76 0.0 0.0 0.00 0.00 0.00 24 1005.2
20260505224025 76 0.0 0.0 0.00 0.00 0.00 23 1005.2
20260505223017 76 0.0 0.0 0.00 0.00 0.00 23 1005.2
20260505222015 76 0.0 0.0 0.00 0.00 0.00 27 1005.3
20260505221023 76 0.0 0.0 0.00 0.00 0.00 28 1005.3
20260505220017 77 0.0 0.0 0.00 0.00 0.00 30 1005.2
20260505215015 77 0.0 0.0 0.00 0.00 0.00 30 1005.2
20260505214015 77 0.0 0.0 0.00 0.00 0.00 31 1005.4
20260505213018 77 0.0 0.0 0.00 0.00 0.00 30 1005.5
20260505212016 77 0.0 0.0 0.00 0.00 0.00 31 1005.6
20260505211015 77 0.0 0.0 0.00 0.00 0.00 32 1005.6
20260505210015 77 0.0 0.0 0.00 0.00 0.00 32 1005.7
20260505205023 78 0.0 0.0 0.00 0.00 0.00 31 1005.8
20260505204017 78 0.0 0.0 0.00 0.00 0.00 32 1005.8
20260505203036 78 0.0 0.0 0.00 0.00 0.00 33 1005.8
20260505202154 78 0.0 0.0 0.00 0.00 0.00 33 1005.9
20260505200054 77 0.0 0.0 0.00 0.00 0.00 35 1006.0
20260505195120 78 0.0 0.0 0.00 0.00 0.00 35 1006.1
20260505194112 77 0.0 0.0 0.00 0.00 0.00 35 1006.0
20260505193045 77 0.0 0.0 0.00 0.00 0.00 36 1005.9
20260505192018 77 0.0 0.0 0.00 0.00 0.00 37 1006.1
20260505191030 77 0.0 0.0 0.00 0.00 0.00 36 1006.2
20260505190056 77 0.0 0.0 0.00 0.00 0.00 38 1006.3
20260505185023 76 0.0 0.0 0.00 0.00 0.00 40 1006.5
20260505184102 76 0.0 0.0 0.00 0.00 0.00 41 1006.5
20260505183111 76 0.0 0.0 0.00 0.00 0.00 40 1006.5
20260505180056 75 0.0 0.0 0.00 0.00 0.00 43 1006.8
20260505175016 75 0.0 0.0 0.00 0.00 0.00 43 1006.8
20260505174015 74 0.0 0.0 0.00 0.00 0.00 45 1006.7
20260505173016 73 0.0 0.0 0.00 0.00 0.00 47 1006.7
20260505172015 74 0.0 0.0 0.00 0.00 0.00 47 1006.7
20260505171015 74 0.0 0.0 0.00 0.00 0.00 48 1006.7
20260505170015 72 0.0 0.0 0.00 0.00 0.00 51 1006.7
20260505165015 71 0.0 0.0 0.00 0.00 0.00 58 1006.6
20260505164015 72 0.0 0.0 0.00 0.00 0.00 67 1006.9
20260505163015 73 0.0 0.0 0.00 0.00 0.00 76 1007.2
20260505162016 73 0.0 0.0 0.00 0.00 0.00 77 1007.1
20260505161016 71 0.0 0.0 0.00 0.00 0.00 77 1007.0
20260505153026 69 0.0 0.0 0.00 0.00 0.00 91 1007.0
20260505152019 69 0.0 0.0 0.00 0.00 0.00 89 1007.0
20260505151100 69 0.0 0.0 0.00 0.00 0.00 96 1007.0
20260505124037 63 0.0 0.0 0.00 0.00 0.00 97 1005.4
20260505123048 63 0.0 0.0 0.00 0.00 0.00 97 1005.6
20260505122015 63 0.0 0.0 0.00 0.00 0.00 96 1005.6
20260505121025 63 0.0 0.0 0.00 0.00 0.00 97 1005.4
20260505120021 63 0.0 0.0 0.00 0.00 0.00 96 1005.7
20260505115027 63 0.0 0.0 0.00 0.00 0.00 96 1005.6
20260505114034 63 0.0 0.0 0.00 0.00 0.00 97 1005.4
20260505113022 63 0.0 0.0 0.00 0.00 0.00 98 1005.5
20260505112020 63 0.0 0.0 0.00 0.00 0.00 97 1005.4
20260505111028 63 0.0 0.0 0.00 0.00 0.00 97 1005.8
20260505102041 64 0.0 0.0 0.00 0.00 0.00 98 1006.1
20260505101051 64 0.0 0.0 0.00 0.00 0.00 98 1006.6
20260505100018 64 0.0 0.0 0.00 0.00 0.00 98 1006.8
20260505095015 64 0.0 0.0 0.00 0.00 0.00 98 1007.1
20260505094015 64 0.0 0.0 0.00 0.00 0.00 98 1007.1
20260505093015 64 0.0 0.0 0.00 0.00 0.00 98 1007.2
20260505092015 64 0.0 0.0 0.00 0.00 0.00 98 1007.7
20260505091016 64 0.0 0.0 0.00 0.00 0.00 97 1008.0
20260505090016 64 0.0 0.0 0.00 0.00 0.00 97 1008.1
20260505084244 64 0.0 0.0 0.00 0.00 0.00 97 1008.9
20260505083133 65 0.0 0.0 0.00 0.00 0.00 98 1009.2
20260505081047 65 0.0 0.0 0.00 0.00 0.00 97 1009.6
20260505080032 65 0.0 0.0 0.00 0.00 0.00 97 1009.8
20260505075015 65 0.0 0.0 0.00 0.00 0.00 97 1009.8
20260505074016 65 0.0 0.0 0.00 0.00 0.00 97 1010.0
20260505073016 65 0.0 0.0 0.00 0.00 0.00 97 1010.1
20260505072015 65 0.0 0.0 0.00 0.00 0.00 96 1010.1
20260505071015 65 0.0 0.0 0.00 0.00 0.00 93 1009.9
20260505070016 65 0.0 0.0 0.00 0.00 0.00 90 1009.9